Regional Weather Roundup
Issued by NWS

Home | Current Version | Previous Version | Text Only | Print | Product List | Glossary On
Versions: 1 2 3 4 5 6 7 8 9 10 11 12 13 14 15 16 17 18 19 20 21 22 23 24 25 26 27 28 29 30 31 32 33 34 35 36 37 38 39 40 41 42 43 44 45 46 47 48 49 50
000
ASUS45 KABQ 011210
RWRNM
NEW MEXICO REGIONAL WEATHER ROUNDUP
NATIONAL WEATHER SERVICE ALBUQUERQUE NM
600 AM MDT SAT OCT 01 2016

NOTE: "FAIR" MEANS FEW OR NO CLOUDS BELOW 12,000 FEET AGL WITH NO
       SIGNIFICANT WEATHER OR OBSTRUCTIONS TO VISION.

      THIS PRODUCT IS RELEASED AS TWO VERSIONS.  ONE VERSION NEAR
      THE TOP OF THE HOUR CONTAINING PRELIMINARY DATA FROM ALBUQUERQUE
      AND OTHER STATIONS.  A FINAL VERSION WITH ADDITIONAL DATA IS
      ISSUED ABOUT 10 MINUTES AFTER THE HOUR.

NMZ501-503-504-510>518-011300-
NORTHWEST PLATEAU/NORTHCENTRAL MOUNTAINS

CITY           SKY/WX    TMP DP  RH WIND       PRES   REMARKS
FARMINGTON     FAIR      47  44  90 E3        30.23R
6HR MIN TEMP:  46; 6HR MAX TEMP:  56;

LOS ALAMOS     FAIR      53  39  61 CALM      30.30S
SANTA FE       FAIR      50  42  74 N3        30.25R
6HR MIN TEMP:  49; 6HR MAX TEMP:  56;

TAOS           FAIR      37  27  65 N6        30.30S WCI  33
ANGEL FIRE     FAIR      29  28  94 CALM      30.36S

$$
NMZ402-403-502-505>509-011300-
WESTCENTRAL MOUNTAINS/SOUTHWEST MOUNTAINS

CITY           SKY/WX    TMP DP  RH WIND       PRES   REMARKS
GALLUP         FAIR      43  42  97 CALM      30.29R
6HR MIN TEMP:  42; 6HR MAX TEMP:  51;

SILVER CITY    FAIR      52  50  93 N5        30.23R

$$
NMZ407-409-411-412-011300-
SOUTHERN DESERTS

CITY           SKY/WX    TMP DP  RH WIND       PRES   REMARKS
DEMING         FAIR      55  54  96 W3        30.17R
6HR MIN TEMP:  54; 6HR MAX TEMP:  65;

LAS CRUCES     FAIR      60  58  94 W3        30.18R
HOLLOMAN AFB   FAIR      58  58 100 SE3       30.14R
ALAMOGORDO     FAIR      59  55  88 SE3       30.16R
T OR C         FAIR      57  51  80 W3        30.18R
6HR MIN TEMP:  57; 6HR MAX TEMP:  66;


$$
NMZ519>523-011300-
CENTRAL VALLEYS/CENTRAL HIGHLANDS

CITY           SKY/WX    TMP DP  RH WIND       PRES   REMARKS
ALBUQUERQUE    MOCLDY    57  55  93 E7        30.21S
6HR MIN TEMP:  56; 6HR MAX TEMP:  64;

DOUBLE EAGLE   CLOUDY    55  48  76 CALM      30.24S
MORIARTY ARPT  FAIR      46  43  87 E3        30.26R
6HR MIN TEMP:  45; 6HR MAX TEMP:  53;

CLINES CORNERS MOCLDY    48  46  93 NW12      30.28S
6HR MIN TEMP:  48; 6HR MAX TEMP:  53;

BELEN          FAIR      55  51  87 NW6       30.21R
6HR MIN TEMP:  55; 6HR MAX TEMP:  65;

SOCORRO        FAIR      54  52  92 CALM      30.19S
6HR MIN TEMP:  54; 6HR MAX TEMP:  61;


$$
NMZ524>526-539-540-011300-
SOUTHCENTRAL MOUNTAINS

CITY           SKY/WX    TMP DP  RH WIND       PRES   REMARKS
RUIDOSO        MOCLDY    50  50 100 W6        30.29R

$$
NMZ527>531-011300-
NORTHEAST HIGHLANDS/NORTHEAST PLAINS

CITY           SKY/WX    TMP DP  RH WIND       PRES   REMARKS
LAS VEGAS      FAIR      47  38  71 CALM      30.24S
6HR MIN TEMP:  46; 6HR MAX TEMP:  53;

RATON          FAIR      44  41  89 NE6       30.19S
6HR MIN TEMP:  43; 6HR MAX TEMP:  56;

CLAYTON        FAIR      57  50  77 NW9       30.13R
6HR MIN TEMP:  50; 6HR MAX TEMP:  61;


$$
NMZ532>537-011300-
EASTCENTRAL PLAINS

CITY           SKY/WX    TMP DP  RH WIND       PRES   REMARKS
TUCUMCARI      FAIR      53  49  86 W6        30.08R
6HR MIN TEMP:  51; 6HR MAX TEMP:  64;

CANNON AFB     FAIR      52  52 100 S5        30.11S
6HR MIN TEMP:  51; 6HR MAX TEMP:  58;

CLOVIS AIRPORT FAIR      52  46  82 S6        30.11S

$$
NMZ028-029-538-011300-
SOUTHEAST PLAINS

CITY           SKY/WX    TMP DP  RH WIND       PRES   REMARKS
ROSWELL        FAIR      53  49  86 N5        30.10R
6HR MIN TEMP:  52; 6HR MAX TEMP:  60;

ARTESIA        FAIR      55  55 100 S7        30.10R
CARLSBAD       FAIR      54  53  97 CALM      30.08R
6HR MIN TEMP:  54; 6HR MAX TEMP:  61;

HOBBS          MOCLDY    55  55 100 CALM      30.13R


$$



USA.gov is the U.S. government's official web portal to all federal, state and local government web resources and services.